View from above orbital plane
|
View from above satellite
|
Ground track
|
The orbit data is extracted from the following two-line orbital elements,
1 22565U 93016A 21109.91437156 -.00000028 00000-0 11070-4 0 9992
2 22565 70.8493 330.8422 0007998 200.3136 159.7667 14.12514148447280
Epoch (UTC): | 19 April 2021 21:56:41 |
Eccentricity: | 0.0007998 |
inclination: | 70.8493° |
perigee height: | 845 km |
apogee height: | 856 km |
right ascension of ascending node: | 330.8422° |
argument of perigee: | 200.3136° |
revolutions per day: | 14.12514148 |
mean anomaly at epoch: | 159.7667° |
orbit number at epoch: | 44728 |
The dashed part of the orbit path shows where the satellite is in the earth's shadow,
|
|